Ozona, TX

4:19 AM CDT on October 18, 2017 (GMT -0500)
Ozona Municipal

Weather History for KOZA - December, 2013

Change the Weather History Date:

Thursday, December 19, 2013

  Actual Average Record
Temperature  
Mean Temperature 58 °F -  
Max Temperature 64 °F 61 °F 77 °F (2012)
Min Temperature 51 °F 32 °F 21 °F (2016)
Degree Days  
Heating Degree Days 8    
Growing Degree Days 8 (Base 50)    
Moisture  
Dew Point 50 °F    
Average Humidity 79    
Maximum Humidity 100    
Minimum Humidity 59    
Precipitation  
Precipitation 0.00 in - - ()
Sea Level Pressure  
Sea Level Pressure 29.89 in    
Wind  
Wind Speed 11 mph (South)    
Max Wind Speed 21 mph    
Max Gust Speed 29 mph    
Visibility 10 miles    
Events      
Averages and records for this station are not official NWS values.
T = Trace of Precipitation, MM = Missing Value Source: NWS Daily Summary

Daily Weather History Graph

Daily Weather History Graph

Search for Another Location

Airport or City:

Trip Planner

Search our weather history database for the weather conditions in past years. The results will help you decide how hot, cold, wet, or windy it might be!

Date:

Astronomy

Dec. 19, 2013 Rise Set
Actual Time 7:37 AM CST 5:46 PM CST
Civil Twilight 7:10 AM CST 6:13 PM CST
Nautical Twilight 6:40 AM CST 6:43 PM CST
Astronomical Twilight 6:11 AM CST 7:13 PM CST
Moon 8:06 PM CST (12/19) 9:04 AM CST (12/19)
Length of Visible Light 11h 02m
Length of Day
10h 09m
Waning Gibbous, 95% of the Moon is Illuminated
Dec 19
Waning Gibbous
Dec 25
Last Quarter
Jan 1
New
Jan 7
First Quarter
Jan 15
Full

Hourly Weather History & Observations

Time (CST) Temp. Dew Point Humidity Pressure Visibility Wind Dir Wind Speed Gust Speed Precip Events Conditions
12:15 AM 51.8 °F 44.6 °F 76% 30.00 in 10.0 mi Calm Calm - N/A   Clear
12:35 AM 51.8 °F 44.6 °F 76% 30.00 in 10.0 mi South 5.8 mph - N/A   Clear
12:55 AM 53.6 °F 44.6 °F 72% 30.00 in 10.0 mi South 5.8 mph - N/A   Clear
1:15 AM 53.6 °F 44.6 °F 72% 29.98 in 10.0 mi South 12.7 mph - N/A   Clear
1:35 AM 53.6 °F 44.6 °F 72% 29.96 in 10.0 mi South 12.7 mph - N/A   Clear
1:55 AM 53.6 °F 44.6 °F 72% 29.97 in 10.0 mi South 10.4 mph - N/A   Clear
2:15 AM 53.6 °F 44.6 °F 72% 29.96 in 10.0 mi South 12.7 mph 19.6 mph N/A   Clear
2:35 AM 53.6 °F 46.4 °F 77% 29.96 in 10.0 mi South 10.4 mph - N/A   Clear
2:55 AM 53.6 °F 46.4 °F 77% 29.96 in 10.0 mi South 10.4 mph - N/A   Clear
3:15 AM 51.8 °F 46.4 °F 82% 29.95 in 10.0 mi South 12.7 mph 16.1 mph N/A   Clear
3:35 AM 51.8 °F 46.4 °F 82% 29.95 in 10.0 mi South 11.5 mph 16.1 mph N/A   Clear
3:55 AM 53.6 °F 48.2 °F 82% 29.95 in 10.0 mi South 9.2 mph - N/A   Mostly Cloudy
4:15 AM 53.6 °F 50.0 °F 88% 29.95 in 10.0 mi South 16.1 mph 21.9 mph N/A   Overcast
4:35 AM 53.6 °F 50.0 °F 88% 29.94 in 10.0 mi South 18.4 mph 25.3 mph N/A   Overcast
4:55 AM 53.6 °F 51.8 °F 94% 29.93 in 10.0 mi South 17.3 mph 24.2 mph N/A   Overcast
5:15 AM 53.6 °F 51.8 °F 94% 29.92 in 10.0 mi South 20.7 mph 28.8 mph N/A   Overcast
5:35 AM 53.6 °F 50.0 °F 88% 29.91 in 10.0 mi South 15.0 mph 25.3 mph N/A   Overcast
5:55 AM 53.6 °F 50.0 °F 88% 29.92 in 10.0 mi South 16.1 mph 24.2 mph N/A   Overcast
6:15 AM 53.6 °F 50.0 °F 88% 29.93 in 10.0 mi South 13.8 mph 23.0 mph N/A   Overcast
6:35 AM 53.6 °F 50.0 °F 88% 29.93 in 10.0 mi South 17.3 mph 25.3 mph N/A   Overcast
6:55 AM 53.6 °F 50.0 °F 88% 29.93 in 10.0 mi South 15.0 mph 20.7 mph N/A   Overcast
7:15 AM 53.6 °F 50.0 °F 88% 29.93 in 10.0 mi South 15.0 mph 18.4 mph N/A   Overcast
7:35 AM 53.6 °F 50.0 °F 88% 29.93 in 10.0 mi South 13.8 mph 21.9 mph N/A   Overcast
7:55 AM 53.6 °F 50.0 °F 88% 29.92 in 10.0 mi South 15.0 mph 20.7 mph N/A   Overcast
8:15 AM 53.6 °F 50.0 °F 88% 29.93 in 10.0 mi South 11.5 mph 20.7 mph N/A   Overcast
8:35 AM 53.6 °F 50.0 °F 88% 29.93 in 10.0 mi South 13.8 mph 25.3 mph N/A   Overcast
8:55 AM 53.6 °F 50.0 °F 88% 29.94 in 10.0 mi South 11.5 mph 19.6 mph N/A   Overcast
9:15 AM 53.6 °F 50.0 °F 88% 29.94 in 10.0 mi South 11.5 mph 18.4 mph N/A   Overcast
9:35 AM 53.6 °F 50.0 °F 88% 29.94 in 10.0 mi South 15.0 mph 20.7 mph N/A   Overcast
9:55 AM 55.4 °F 50.0 °F 82% 29.95 in 10.0 mi South 19.6 mph - N/A   Overcast
10:15 AM 55.4 °F 50.0 °F 82% 29.95 in 10.0 mi SSW 16.1 mph 23.0 mph N/A   Overcast
10:35 AM 55.4 °F 50.0 °F 82% 29.95 in 10.0 mi South 19.6 mph 24.2 mph N/A   Overcast
10:55 AM 57.2 °F 50.0 °F 77% 29.94 in 10.0 mi SSW 15.0 mph 18.4 mph N/A   Overcast
11:15 AM 60.8 °F 51.8 °F 72% 29.93 in 10.0 mi South 13.8 mph 21.9 mph N/A   Overcast
11:35 AM 60.8 °F 50.0 °F 68% 29.93 in 10.0 mi South 19.6 mph 24.2 mph N/A   Mostly Cloudy
11:55 AM 60.8 °F 50.0 °F 68% 29.92 in 10.0 mi SSW 15.0 mph 21.9 mph N/A   Scattered Clouds
12:15 PM 60.8 °F 50.0 °F 68% 29.91 in 10.0 mi SSW 15.0 mph - N/A   Scattered Clouds
12:35 PM 62.6 °F 50.0 °F 63% 29.89 in 10.0 mi South 16.1 mph - N/A   Clear
12:55 PM 62.6 °F 50.0 °F 63% 29.88 in 10.0 mi SSW 15.0 mph - N/A   Clear
1:15 PM 62.6 °F 50.0 °F 63% 29.87 in 10.0 mi South 13.8 mph - N/A   Clear
1:35 PM 62.6 °F 50.0 °F 63% 29.86 in 10.0 mi SSW 13.8 mph - N/A   Clear
1:55 PM 62.6 °F 50.0 °F 63% 29.85 in 10.0 mi SSW 10.4 mph - N/A   Clear
2:15 PM 62.6 °F 50.0 °F 63% 29.83 in 10.0 mi South 13.8 mph 17.3 mph N/A   Clear
2:35 PM 62.6 °F 50.0 °F 63% 29.82 in 10.0 mi South 13.8 mph 18.4 mph N/A   Clear
2:55 PM 64.4 °F 50.0 °F 59% 29.82 in 10.0 mi South 11.5 mph 17.3 mph N/A   Clear
3:15 PM 64.4 °F 50.0 °F 59% 29.81 in 10.0 mi South 15.0 mph - N/A   Clear
3:35 PM 64.4 °F 50.0 °F 59% 29.81 in 10.0 mi South 12.7 mph - N/A   Clear
3:55 PM 64.4 °F 50.0 °F 59% 29.81 in 10.0 mi South 10.4 mph - N/A   Clear
4:15 PM 64.4 °F 50.0 °F 59% 29.81 in 10.0 mi South 11.5 mph 16.1 mph N/A   Clear
4:35 PM 62.6 °F 50.0 °F 63% 29.81 in 10.0 mi South 11.5 mph - N/A   Clear
4:55 PM 62.6 °F 50.0 °F 63% 29.82 in 10.0 mi South 9.2 mph - N/A   Clear
5:15 PM 62.6 °F 50.0 °F 63% 29.82 in 10.0 mi South 10.4 mph - N/A   Clear
5:35 PM 60.8 °F 50.0 °F 68% 29.81 in 10.0 mi South 9.2 mph - N/A   Clear
5:55 PM 59.0 °F 50.0 °F 72% 29.82 in 10.0 mi SSW 11.5 mph - N/A   Clear
6:15 PM 55.4 °F 50.0 °F 82% 29.82 in 10.0 mi South 8.1 mph - N/A   Clear
6:35 PM 55.4 °F 50.0 °F 82% 29.83 in 10.0 mi South 9.2 mph - N/A   Clear
6:55 PM 55.4 °F 50.0 °F 82% 29.83 in 10.0 mi South 10.4 mph - N/A   Clear
7:15 PM 55.4 °F 50.0 °F 82% 29.83 in 10.0 mi South 9.2 mph - N/A   Clear
7:35 PM 55.4 °F 50.0 °F 82% 29.83 in 10.0 mi South 6.9 mph - N/A   Clear
7:55 PM 53.6 °F 50.0 °F 88% 29.83 in 10.0 mi South 6.9 mph - N/A   Clear
8:15 PM 55.4 °F 50.0 °F 82% 29.83 in 10.0 mi South 9.2 mph - N/A   Clear
8:35 PM 55.4 °F 50.0 °F 82% 29.83 in 10.0 mi South 10.4 mph 16.1 mph N/A   Clear
8:55 PM 55.4 °F 50.0 °F 82% 29.83 in 10.0 mi South 9.2 mph - N/A   Clear
9:15 PM 53.6 °F 50.0 °F 88% 29.82 in 10.0 mi South 6.9 mph - N/A   Clear
9:35 PM 53.6 °F 51.8 °F 94% 29.82 in 10.0 mi South 5.8 mph - N/A   Clear
9:55 PM 53.6 °F 51.8 °F 94% 29.83 in 10.0 mi South 5.8 mph - N/A   Clear
10:15 PM 53.6 °F 51.8 °F 94% 29.83 in 10.0 mi South 4.6 mph - N/A   Clear
10:35 PM 53.6 °F 51.8 °F 94% 29.83 in 10.0 mi South 3.5 mph - N/A   Clear
10:55 PM 53.6 °F 51.8 °F 94% 29.82 in 10.0 mi South 5.8 mph - N/A   Clear
11:15 PM 53.6 °F 51.8 °F 94% 29.82 in 10.0 mi South 6.9 mph - N/A   Clear
11:35 PM 51.8 °F 51.8 °F 100% 29.82 in 7.0 mi SSW 4.6 mph - N/A   Clear
11:55 PM 51.8 °F 51.8 °F 100% 29.82 in 7.0 mi SW 5.8 mph - N/A   Clear